DW8305 Weather Reports


time (UTC)temp
C
wind
direction
speed
KPH
gust
KPH
rain 1hr
cm
rain 24hr
cm
rain mn
cm
humidity
%
barometer
mb
20260831110236 22 270 8.0 12.9 0.00 0.00 0.00 63 1010.5
20260831105216 22 225 17.7 27.4 0.00 0.00 0.00 63 1010.6
20260831104216 22 225 11.3 19.3 0.00 0.00 0.00 66 1010.7
20260831103216 22 225 19.3 25.7 0.00 0.00 0.00 65 1011.0
20260831102216 22 248 17.7 29.0 0.00 0.00 0.00 62 1010.8
20260831101216 22 270 16.1 24.1 0.00 0.00 0.00 62 1010.8
20260831100216 22 293 8.0 16.1 0.00 0.00 0.00 65 1010.7
20260831095216 21 248 12.9 17.7 0.00 0.00 0.00 67 1010.9
20260831094216 22 270 12.9 32.2 0.00 0.00 0.00 65 1010.9
20260831093216 21 225 14.5 25.7 0.00 0.00 0.00 67 1010.9
20260831092236 21 270 11.3 17.7 0.00 0.00 0.00 70 1010.8
20260831091236 21 270 14.5 24.1 0.00 0.00 0.00 71 1010.9
20260831090216 21 270 9.7 17.7 0.00 0.00 0.00 72 1010.9
20260831085236 20 225 8.0 14.5 0.00 0.00 0.00 73 1011.1
20260831084216 20 248 12.9 22.5 0.00 0.00 0.00 72 1011.1
20260831083216 21 225 12.9 19.3 0.00 0.00 0.00 71 1011.1
20260831082216 21 293 6.4 11.3 0.00 0.00 0.00 74 1011.2
20260831081216 20 270 6.4 12.9 0.00 0.00 0.00 75 1011.1
20260831080216 20 270 11.3 20.9 0.00 0.00 0.00 76 1010.9
20260831075216 20 225 12.9 19.3 0.00 0.00 0.00 76 1011.0
20260831074216 20 225 17.7 25.7 0.00 0.00 0.00 77 1011.0
20260831073236 19 225 4.8 11.3 0.00 0.00 0.00 78 1011.1
20260831072216 19 270 6.4 12.9 0.00 0.00 0.00 78 1011.1
20260831071216 18 225 11.3 17.7 0.00 0.00 0.00 79 1011.1
20260831070236 18 225 4.8 12.9 0.00 0.00 0.00 80 1011.0
20260831065256 18 225 8.0 11.3 0.00 0.00 0.00 80 1010.9
20260831064216 18 225 8.0 11.3 0.00 0.00 0.00 81 1010.8
20260831063216 18 203 3.2 8.0 0.00 0.00 0.00 81 1010.7
20260831062216 18 225 3.2 8.0 0.00 0.00 0.00 81 1010.7
20260831061216 17 203 6.4 9.7 0.00 0.00 0.00 81 1010.7
20260831060216 17 225 3.2 4.8 0.00 0.00 0.00 83 1010.7
20260831055236 17 203 3.2 4.8 0.00 0.00 0.00 84 1010.6
20260831054216 17 158 4.8 8.0 0.00 0.00 0.00 85 1010.6
20260831053216 16 203 4.8 9.7 0.00 0.00 0.00 87 1010.4
20260831052216 16 225 1.6 3.2 0.00 0.00 0.00 89 1010.4
20260831051216 16 158 3.2 8.0 0.00 0.00 0.00 90 1010.3
20260831050216 15 0.0 1.6 0.00 0.00 0.00 91 1010.3
20260831045236 15 225 1.6 3.2 0.00 0.00 0.00 91 1010.4
20260831044216 15 203 1.6 3.2 0.00 0.00 0.00 92 1010.3
20260831043236 15 135 1.6 3.2 0.00 0.00 0.00 92 1010.3
20260831042216 15 0.0 0.0 0.00 0.00 0.00 91 1010.2
20260831041216 15 113 1.6 3.2 0.00 0.00 0.00 91 1010.2
20260831040216 15 0.0 1.6 0.00 0.00 0.00 91 1010.2
20260831035216 15 0.0 1.6 0.00 0.00 0.00 91 1010.5
20260831034236 15 0.0 0.0 0.00 0.00 0.00 91 1010.5
20260831033216 15 113 3.2 4.8 0.00 0.00 0.00 91 1010.4
20260831032236 15 0.0 0.0 0.00 0.00 0.00 91 1010.6
20260831031216 15 0.0 0.0 0.00 0.00 0.00 91 1010.5
20260831030216 15 0.0 1.6 0.00 0.00 0.00 92 1010.6
20260831025216 15 0.0 1.6 0.00 0.03 0.00 92 1010.8
20260831024216 15 0.0 1.6 0.00 0.03 0.00 92 1010.8
20260831023216 15 0.0 1.6 0.00 0.03 0.00 92 1011.1
20260831022216 15 0.0 1.6 0.00 0.03 0.00 92 1011.2
20260831021215 15 135 1.6 1.6 0.00 0.03 0.00 92 1011.2
20260831020216 15 135 1.6 1.6 0.00 0.03 0.00 92 1011.2
20260831015216 15 135 3.2 3.2 0.00 0.03 0.00 92 1011.3
20260831014216 15 135 3.2 4.8 0.00 0.03 0.00 92 1011.4
20260831013236 15 135 1.6 1.6 0.00 0.03 0.00 92 1011.6
20260831012215 15 0.0 1.6 0.00 0.03 0.00 92 1011.8
20260831011216 15 135 1.6 3.2 0.00 0.03 0.00 92 1011.8
20260831010215 15 135 4.8 4.8 0.00 0.03 0.00 92 1011.8
20260831005216 15 135 1.6 3.2 0.00 0.03 0.00 92 1011.9
20260831004235 15 113 4.8 4.8 0.00 0.03 0.00 92 1011.8
20260831003216 15 135 3.2 4.8 0.00 0.03 0.00 91 1012.0
20260831002215 16 135 1.6 3.2 0.00 0.03 0.00 92 1011.9
20260831001236 16 0.0 0.0 0.00 0.03 0.00 91 1012.2
20260831000218 16 135 3.2 4.8 0.00 0.03 0.00 91 1012.2
20260830235216 16 135 3.2 3.2 0.00 0.03 0.00 91 1012.3
20260830234216 16 135 1.6 1.6 0.00 0.03 0.00 91 1012.2
20260830233235 16 0.0 0.0 0.00 0.03 0.00 91 1012.4
20260830232215 16 0.0 1.6 0.00 0.03 0.00 91 1012.6
20260830231215 16 135 1.6 3.2 0.00 0.03 0.00 90 1012.6
20260830230216 16 0.0 1.6 0.00 0.03 0.00 91 1012.7
20260830225216 16 0.0 1.6 0.00 0.10 0.00 91 1012.7
20260830224215 16 0.0 0.0 0.00 0.10 0.00 90 1012.7
20260830223216 16 0.0 1.6 0.00 0.10 0.00 90 1012.7
20260830222216 17 135 1.6 3.2 0.00 0.10 0.00 89 1012.7
20260830221215 17 135 1.6 3.2 0.00 0.10 0.00 89 1012.8
20260830220308 17 0.0 0.0 0.00 0.08 0.00 89 1013.0
20260830215536 17 135 1.6 3.2 0.00 0.23 0.10 89 1013.0
20260830214516 17 135 1.6 1.6 0.00 0.23 0.10 89 1012.8
20260830213536 17 0.0 1.6 0.00 0.23 0.10 89 1012.9
20260830212516 17 0.0 0.0 0.00 0.23 0.10 88 1012.7
20260830211516 17 0.0 0.0 0.00 0.23 0.10 88 1012.7
20260830210516 17 0.0 1.6 0.00 0.23 0.10 87 1012.8
20260830205516 18 0.0 1.6 0.00 0.23 0.10 86 1012.9
20260830204516 18 0.0 1.6 0.00 0.23 0.10 85 1012.9
20260830203516 18 0.0 0.0 0.00 0.23 0.10 84 1012.9
20260830202516 18 0.0 0.0 0.00 0.23 0.10 83 1013.0
20260830201516 19 270 1.6 1.6 0.00 0.23 0.10 82 1013.0
20260830200516 19 0.0 1.6 0.00 0.23 0.10 82 1013.1
20260830195516 19 0.0 1.6 0.00 0.23 0.10 81 1013.3
20260830194516 20 0.0 1.6 0.00 0.23 0.10 80 1013.4
20260830193516 20 0.0 0.0 0.00 0.23 0.10 79 1013.4
20260830192516 20 0.0 1.6 0.00 0.23 0.10 78 1013.5
20260830191536 20 270 1.6 1.6 0.00 0.23 0.10 78 1013.5
20260830190556 20 0.0 1.6 0.00 0.23 0.10 77 1013.4
20260830185536 20 270 6.4 8.0 0.00 0.25 0.10 77 1013.4
20260830184516 20 293 1.6 3.2 0.00 0.25 0.10 77 1013.2
20260830183516 20 270 4.8 11.3 0.00 0.25 0.10 76 1013.1
20260830182556 20 225 3.2 4.8 0.00 0.25 0.10 76 1013.0
20260830181516 20 293 4.8 8.0 0.00 0.25 0.10 76 1012.9
20260830180516 20 270 4.8 8.0 0.00 0.25 0.10 76 1012.8
20260830175516 20 270 4.8 8.0 0.00 0.25 0.10 76 1012.8
20260830174516 20 270 4.8 9.7 0.00 0.25 0.10 75 1012.6
20260830173516 20 248 3.2 4.8 0.00 0.25 0.10 75 1012.6
20260830172516 20 225 6.4 12.9 0.00 0.25 0.10 75 1012.5
20260830171536 20 270 4.8 8.0 0.00 0.25 0.10 75 1012.5
20260830170516 21 225 8.0 14.5 0.00 0.25 0.10 75 1012.5
20260830165516 21 248 9.7 14.5 0.00 0.25 0.10 75 1012.6
20260830164536 21 270 8.0 12.9 0.00 0.25 0.10 74 1012.5
20260830163516 21 248 6.4 16.1 0.00 0.25 0.10 74 1012.5
20260830162516 21 270 12.9 19.3 0.00 0.25 0.10 74 1012.5
20260830161516 21 225 6.4 11.3 0.00 0.25 0.10 74 1012.5
20260830160516 21 248 12.9 25.7 0.00 0.25 0.10 74 1012.4
20260830155556 21 270 14.5 17.7 0.00 0.25 0.10 74 1012.4
20260830154536 21 270 9.7 16.1 0.00 0.25 0.10 74 1012.3
20260830153516 21 270 11.3 19.3 0.00 0.25 0.10 74 1012.3
20260830152516 21 270 8.0 17.7 0.00 0.25 0.10 75 1012.2
20260830151516 21 270 4.8 8.0 0.00 0.25 0.10 75 1012.3
20260830150516 21 270 6.4 9.7 0.00 0.25 0.10 75 1012.2
20260830145516 21 248 8.0 16.1 0.00 0.25 0.10 75 1012.2
20260830144516 21 270 11.3 17.7 0.00 0.25 0.10 75 1012.2
20260830143557 21 270 8.0 12.9 0.00 0.25 0.10 75 1012.2
20260830142516 21 270 12.9 16.1 0.00 0.25 0.10 75 1012.1
20260830141516 21 270 19.3 27.4 0.00 0.25 0.10 76 1012.2
20260830140536 21 270 14.5 25.7 0.00 0.25 0.10 76 1012.1
20260830135516 21 270 14.5 22.5 0.00 0.25 0.10 76 1012.1
20260830134516 21 270 14.5 19.3 0.00 0.25 0.10 76 1012.0
20260830133516 21 270 14.5 22.5 0.00 0.25 0.10 75 1012.1
20260830132516 21 270 17.7 35.4 0.00 0.25 0.10 74 1012.1
20260830131516 21 270 20.9 33.8 0.00 0.25 0.10 74 1011.8
20260830130516 21 225 16.1 24.1 0.00 0.25 0.10 74 1011.8
20260830125516 21 270 12.9 17.7 0.00 0.25 0.10 74 1011.7
20260830124516 21 270 8.0 14.5 0.00 0.25 0.10 75 1011.6
20260830123516 21 248 16.1 27.4 0.00 0.25 0.10 75 1011.6
20260830122516 21 270 9.7 16.1 0.00 0.25 0.10 76 1011.6
20260830121516 21 270 12.9 19.3 0.00 0.25 0.10 76 1011.5
20260830120516 21 270 9.7 20.9 0.00 0.25 0.10 76 1011.5
20260830115516 21 270 11.3 22.5 0.00 0.25 0.10 76 1011.4
20260830114516 20 270 11.3 19.3 0.00 0.25 0.10 77 1011.3
20260830113516 21 270 14.5 20.9 0.00 0.25 0.10 77 1011.2
20260830112516 20 270 12.9 17.7 0.00 0.25 0.10 78 1011.2
20260830111536 20 248 12.9 19.3 0.00 0.25 0.10 80 1011.1
20260830110516 20 270 11.3 19.3 0.00 0.25 0.10 80 1011.0